Location: ???????
(55.4362°N, 38.1183°E)
Time: 20:38:30
(UTC+00:00)

USA 267 - Pass Details

Date: 02 November 2021
Orbit: 1101 x 1107 km, 123.0° (Epoch: 27 November)

Event Time Altitude Azimuth Distance (km) Brightness Sun altitude
Exits shadow 16:40:05 21° 162° (SSE) 2,244 4.6 -24.8°
Maximum altitude 16:44:02 41° 221° (SW) 1,539 4.2 -25.4°
Drops below altitude 10° 16:50:10 10° 290° (WNW) 2,965 6.5 -26.3°
Sets 16:52:50 0° 298° (WNW) 3,925 7.4 -26.6°
